TUI3LH GCXO-EDDL

Flight info

Callsign TUI3LH
Flight time N/A
Altitude 34000
Route KONBA UN866 BEXAL DCT BEVOP DCT LUXUT DCT RIVRO DCT TOSDI DCT ZMR DCT NUBLO DCT RONSI DCT DELOG DCT PEXOD DCT DIDIG DCT TIRAV DCT ERJAZ DCT PIWIZ DCT TSU UM163 LEQOS DCT CTL DCT ARDEN/N0445F330 DCT KOMOB T859 NVO T857 BIKMU BIKMU1A
Aircraft B738/M-SDE2E3FGHIRWXY/LB1

Departure

Time 2026-04-29 12:06
Airport Tenerife Norte-Ciudad de La Laguna Airport (GCXO)

Arrival

Time N/A
Airport Düsseldorf Airport (EDDL)
Time Latitude Longitude Altitude Speed Heading
2026-04-29 11:41 28.48767 -16.34873 2070 ft 0 kts 21°
2026-04-29 11:58 28.48747 -16.34882 2070 ft 4 kts 21°
2026-04-29 11:58 28.48721 -16.34893 2070 ft 4 kts 21°
2026-04-29 11:59 28.48696 -16.34904 2070 ft 4 kts 21°
2026-04-29 11:59 28.48671 -16.34915 2070 ft 3 kts 21°
2026-04-29 11:59 28.48648 -16.34921 2070 ft 4 kts 345°
2026-04-29 11:59 28.48631 -16.34904 2070 ft 4 kts 293°
2026-04-29 12:00 28.48626 -16.34890 2070 ft 1 kts 291°
2026-04-29 12:00 28.48626 -16.34889 2070 ft 0 kts 291°
2026-04-29 12:02 28.48636 -16.34918 2070 ft 8 kts 291°
2026-04-29 12:03 28.48666 -16.35008 2070 ft 15 kts 291°
2026-04-29 12:03 28.48702 -16.35117 2070 ft 15 kts 291°
2026-04-29 12:03 28.48738 -16.35223 2070 ft 14 kts 291°
2026-04-29 12:03 28.48771 -16.35322 2070 ft 13 kts 291°
2026-04-29 12:04 28.48803 -16.35418 2070 ft 13 kts 291°
2026-04-29 12:04 28.48835 -16.35512 2069 ft 13 kts 291°
2026-04-29 12:04 28.48865 -16.35603 2068 ft 12 kts 291°
2026-04-29 12:04 28.48877 -16.35695 2067 ft 12 kts 253°
2026-04-29 12:05 28.48817 -16.35750 2067 ft 12 kts 180°
2026-04-29 12:05 28.48791 -16.35725 2067 ft 2 kts 109°
2026-04-29 12:05 28.48777 -16.35679 2068 ft 20 kts 111°
2026-04-29 12:05 28.48643 -16.35280 2070 ft 87 kts 111°
2026-04-29 12:06 28.48357 -16.34421 2064 ft 144 kts 111°
2026-04-29 12:06 28.47954 -16.33237 2339 ft 167 kts 112°
2026-04-29 12:06 28.47499 -16.31942 2832 ft 186 kts 113°
2026-04-29 12:06 28.46973 -16.30565 3473 ft 195 kts 115°
2026-04-29 12:07 28.46406 -16.29147 4194 ft 200 kts 116°
2026-04-29 12:07 28.45796 -16.27631 4410 ft 222 kts 116°
2026-04-29 12:07 28.45126 -16.25957 4654 ft 242 kts 116°
2026-04-29 12:07 28.44408 -16.24163 4953 ft 259 kts 116°
2026-04-29 12:08 28.43640 -16.22237 5334 ft 274 kts 115°
2026-04-29 12:08 28.42851 -16.20250 6077 ft 276 kts 115°
2026-04-29 12:08 28.42057 -16.18250 6791 ft 280 kts 115°
2026-04-29 12:08 28.41251 -16.16217 7446 ft 284 kts 115°
2026-04-29 12:09 28.40840 -16.14009 8069 ft 292 kts 85°
2026-04-29 12:09 28.41503 -16.11842 8731 ft 295 kts 54°
2026-04-29 12:09 28.42979 -16.10228 9388 ft 298 kts 30°
2026-04-29 12:09 28.44890 -16.09323 10031 ft 300 kts 12°
2026-04-29 12:10 28.46960 -16.08821 10428 ft 313 kts
2026-04-29 12:10 28.49192 -16.08378 10577 ft 335 kts
2026-04-29 12:10 28.51527 -16.07937 10733 ft 355 kts
2026-04-29 12:10 28.54017 -16.07462 11021 ft 369 kts
2026-04-29 12:11 28.56566 -16.06962 11568 ft 373 kts
2026-04-29 12:11 28.59131 -16.06446 12205 ft 376 kts
2026-04-29 12:11 28.61715 -16.05918 12811 ft 379 kts
2026-04-29 12:11 28.64321 -16.05379 13396 ft 382 kts
2026-04-29 12:12 28.66949 -16.04831 13965 ft 386 kts
2026-04-29 12:12 28.69606 -16.04276 14488 ft 389 kts
2026-04-29 12:12 28.72282 -16.03715 15004 ft 393 kts
2026-04-29 12:12 28.74988 -16.03148 15518 ft 396 kts
2026-04-29 12:13 28.76792 -16.02769 15867 ft 398 kts
2026-04-29 12:13 28.79528 -16.02194 16394 ft 402 kts
2026-04-29 12:13 28.82291 -16.01614 16901 ft 405 kts
2026-04-29 12:13 28.85076 -16.01028 17401 ft 409 kts
2026-04-29 12:14 28.87888 -16.00437 17901 ft 412 kts
2026-04-29 12:14 28.90723 -15.99840 18381 ft 416 kts
2026-04-29 12:14 28.93588 -15.99237 18820 ft 419 kts
2026-04-29 12:14 28.96426 -15.98639 19269 ft 421 kts
2026-04-29 12:15 28.99315 -15.98030 19714 ft 424 kts
2026-04-29 12:15 29.02236 -15.97413 20152 ft 427 kts
2026-04-29 12:15 29.05167 -15.96795 20591 ft 430 kts
2026-04-29 12:15 29.08126 -15.96170 21016 ft 433 kts
2026-04-29 12:16 29.11094 -15.95543 21434 ft 435 kts
2026-04-29 12:16 29.14083 -15.94911 21842 ft 438 kts
2026-04-29 12:16 29.17083 -15.94276 22235 ft 441 kts
2026-04-29 12:16 29.20115 -15.93634 22634 ft 443 kts
2026-04-29 12:17 29.23124 -15.92997 23024 ft 446 kts
2026-04-29 12:17 29.26188 -15.92347 23395 ft 449 kts
2026-04-29 12:17 29.29267 -15.91694 23747 ft 451 kts
2026-04-29 12:17 29.32366 -15.91037 24058 ft 454 kts
2026-04-29 12:18 29.35477 -15.90376 24364 ft 456 kts
2026-04-29 12:18 29.38605 -15.89712 24659 ft 459 kts
2026-04-29 12:18 29.41751 -15.89043 24961 ft 461 kts
2026-04-29 12:18 29.44912 -15.88370 25255 ft 463 kts
2026-04-29 12:19 29.48089 -15.87694 25547 ft 465 kts
2026-04-29 12:19 29.51284 -15.87013 25824 ft 468 kts
2026-04-29 12:19 29.54494 -15.86329 26098 ft 470 kts
2026-04-29 12:19 29.57717 -15.85642 26376 ft 472 kts
2026-04-29 12:20 29.60952 -15.84951 26652 ft 474 kts
2026-04-29 12:20 29.64207 -15.84256 26917 ft 477 kts
2026-04-29 12:20 29.67478 -15.83557 27163 ft 479 kts
2026-04-29 12:20 29.70763 -15.82855 27406 ft 481 kts
2026-04-29 12:21 29.74064 -15.82148 27664 ft 483 kts
2026-04-29 12:21 29.77335 -15.81448 27910 ft 485 kts
2026-04-29 12:21 29.80698 -15.80727 28155 ft 487 kts
2026-04-29 12:21 29.83990 -15.80021 28386 ft 489 kts
2026-04-29 12:22 29.87342 -15.79302 28608 ft 491 kts
2026-04-29 12:22 29.90707 -15.78579 28888 ft 491 kts
2026-04-29 12:22 29.94062 -15.77858 29246 ft 490 kts
2026-04-29 12:22 29.97409 -15.77138 29633 ft 488 kts
2026-04-29 12:23 30.00727 -15.76285 29947 ft 489 kts 14°
2026-04-29 12:23 30.04007 -15.75201 30212 ft 490 kts 15°
2026-04-29 12:23 30.07258 -15.74032 30496 ft 489 kts 16°
2026-04-29 12:23 30.10500 -15.72835 30800 ft 488 kts 17°
2026-04-29 12:24 30.13738 -15.71643 31073 ft 488 kts 16°
2026-04-29 12:24 30.16976 -15.70467 31322 ft 487 kts 16°
2026-04-29 12:24 30.20215 -15.69307 31605 ft 487 kts 15°
2026-04-29 12:24 30.23451 -15.68160 31873 ft 486 kts 15°
2026-04-29 12:25 30.26638 -15.67037 32123 ft 485 kts 15°
2026-04-29 12:25 30.29870 -15.65900 32375 ft 485 kts 15°
2026-04-29 12:25 30.36315 -15.63633 32870 ft 484 kts 15°
2026-04-29 12:26 30.39536 -15.62497 33130 ft 483 kts 15°
2026-04-29 12:26 30.42746 -15.61364 33401 ft 482 kts 15°
2026-04-29 12:26 30.45952 -15.60231 33651 ft 481 kts 15°
2026-04-29 12:26 30.49151 -15.59099 33863 ft 481 kts 15°
2026-04-29 12:27 30.52352 -15.57967 34034 ft 481 kts 15°
2026-04-29 12:27 30.55569 -15.56827 34141 ft 483 kts 15°
2026-04-29 12:27 30.58787 -15.55687 34301 ft 484 kts 15°
2026-04-29 12:27 30.62003 -15.54546 34519 ft 482 kts 15°
2026-04-29 12:28 30.65208 -15.53408 34735 ft 481 kts 15°
2026-04-29 12:28 30.68407 -15.52272 34905 ft 481 kts 14°
2026-04-29 12:28 30.71613 -15.51132 35073 ft 481 kts 14°
2026-04-29 12:28 30.74807 -15.49996 35275 ft 480 kts 14°
2026-04-29 12:29 30.77999 -15.48860 35482 ft 478 kts 14°
2026-04-29 12:29 30.81174 -15.47728 35646 ft 478 kts 14°
2026-04-29 12:29 30.84361 -15.46593 35790 ft 478 kts 14°
2026-04-29 12:29 30.87497 -15.45475 35941 ft 478 kts 14°
2026-04-29 12:30 30.90678 -15.44339 36022 ft 479 kts 14°
2026-04-29 12:30 30.97060 -15.42059 36024 ft 479 kts 14°
2026-04-29 12:31 31.03411 -15.39786 36023 ft 476 kts 14°
2026-04-29 12:31 31.09743 -15.37517 36022 ft 474 kts 14°
2026-04-29 12:32 31.16037 -15.35259 36025 ft 473 kts 14°
2026-04-29 12:32 31.22317 -15.33002 36027 ft 472 kts 14°
2026-04-29 12:33 31.28585 -15.30709 36023 ft 472 kts 18°
2026-04-29 12:33 31.34372 -15.27112 36036 ft 476 kts 31°
2026-04-29 12:34 31.39871 -15.22765 36027 ft 477 kts 32°
2026-04-29 12:34 31.45370 -15.18396 36027 ft 478 kts 32°
2026-04-29 12:35 31.50905 -15.14056 36025 ft 479 kts 31°
2026-04-29 12:35 31.56464 -15.09724 36026 ft 480 kts 31°
2026-04-29 12:36 31.62024 -15.05393 36027 ft 480 kts 31°
2026-04-29 12:36 31.67590 -15.01049 36025 ft 480 kts 31°
2026-04-29 12:37 31.73164 -14.96689 36025 ft 480 kts 31°
2026-04-29 12:37 31.78685 -14.92365 36011 ft 480 kts 31°
2026-04-29 12:38 31.84235 -14.88011 36026 ft 479 kts 31°
2026-04-29 12:38 31.89784 -14.83652 36029 ft 479 kts 31°
2026-04-29 12:39 31.95316 -14.79299 36022 ft 478 kts 31°
2026-04-29 12:39 32.00836 -14.74950 36023 ft 477 kts 31°
2026-04-29 12:40 32.06349 -14.70600 36027 ft 476 kts 31°
2026-04-29 12:40 32.11849 -14.66254 36026 ft 475 kts 31°
2026-04-29 12:41 32.17308 -14.61934 36025 ft 475 kts 31°
2026-04-29 12:41 32.22785 -14.57592 36023 ft 474 kts 31°
2026-04-29 12:42 32.28258 -14.53248 36021 ft 473 kts 31°
2026-04-29 12:42 32.33730 -14.48899 36024 ft 473 kts 31°
2026-04-29 12:43 32.39192 -14.44551 36027 ft 473 kts 31°
2026-04-29 12:43 32.44648 -14.40201 36025 ft 473 kts 31°
2026-04-29 12:44 32.50100 -14.35848 36027 ft 473 kts 31°
2026-04-29 12:44 32.55558 -14.31484 36018 ft 473 kts 31°
2026-04-29 12:45 32.61011 -14.27117 36014 ft 473 kts 31°
2026-04-29 12:45 32.66429 -14.22771 36022 ft 473 kts 31°
2026-04-29 12:46 32.71883 -14.18391 36020 ft 473 kts 31°
2026-04-29 12:46 32.77343 -14.13998 36014 ft 473 kts 31°
2026-04-29 12:47 32.82796 -14.09605 36017 ft 473 kts 31°
2026-04-29 12:47 32.88247 -14.05207 36016 ft 473 kts 31°
2026-04-29 12:48 32.93658 -14.00833 36019 ft 473 kts 31°
2026-04-29 12:48 32.99101 -13.96429 36015 ft 473 kts 31°
2026-04-29 12:49 33.04547 -13.92014 36014 ft 472 kts 31°
2026-04-29 12:49 33.09984 -13.87599 36013 ft 472 kts 31°
2026-04-29 12:50 33.15416 -13.83183 36008 ft 472 kts 31°
2026-04-29 12:50 33.20828 -13.78760 36007 ft 471 kts 31°
2026-04-29 12:51 33.26237 -13.74323 36010 ft 471 kts 31°
2026-04-29 12:51 33.31604 -13.69915 36009 ft 471 kts 31°
2026-04-29 12:52 33.37006 -13.65472 36010 ft 471 kts 31°
2026-04-29 12:52 33.42398 -13.61031 36014 ft 470 kts 31°
2026-04-29 12:53 33.47788 -13.56586 36007 ft 470 kts 31°
2026-04-29 12:53 33.53175 -13.52136 36008 ft 470 kts 31°
2026-04-29 12:54 33.58563 -13.47678 36012 ft 470 kts 31°
2026-04-29 12:54 33.63957 -13.43208 36007 ft 470 kts 31°
2026-04-29 12:55 33.69308 -13.38767 36005 ft 470 kts 31°
2026-04-29 12:55 33.74693 -13.34291 36008 ft 470 kts 31°
2026-04-29 12:56 33.80075 -13.29810 36009 ft 470 kts 31°
2026-04-29 12:56 33.85455 -13.25325 36002 ft 471 kts 31°
2026-04-29 12:57 33.90847 -13.20822 36005 ft 471 kts 31°
2026-04-29 12:57 33.96197 -13.16347 36003 ft 471 kts 31°
2026-04-29 12:58 34.01583 -13.11834 36003 ft 471 kts 31°
2026-04-29 12:58 34.06966 -13.07317 35999 ft 471 kts 31°
2026-04-29 12:59 34.12351 -13.02791 35998 ft 471 kts 31°
2026-04-29 12:59 34.17737 -12.98257 35994 ft 472 kts 31°
2026-04-29 13:00 34.23115 -12.93722 35989 ft 472 kts 31°
2026-04-29 13:00 34.27591 -12.89947 36009 ft 471 kts 31°
2026-04-29 13:01 34.32989 -12.85426 35993 ft 471 kts 31°
2026-04-29 13:01 34.39256 -12.80180 35998 ft 471 kts 31°
2026-04-29 13:02 34.43770 -12.76392 35993 ft 471 kts 31°
2026-04-29 13:02 34.49161 -12.71858 35994 ft 471 kts 31°
2026-04-29 13:03 34.54516 -12.67345 35995 ft 471 kts 31°
2026-04-29 13:03 34.59897 -12.62804 35988 ft 471 kts 31°
2026-04-29 13:04 34.65286 -12.58248 35983 ft 472 kts 31°
2026-04-29 13:04 34.70673 -12.53687 35983 ft 472 kts 31°
2026-04-29 13:05 34.76052 -12.49125 35982 ft 472 kts 31°
2026-04-29 13:05 34.81434 -12.44553 35987 ft 472 kts 31°
2026-04-29 13:06 34.86817 -12.39974 35989 ft 472 kts 31°
2026-04-29 13:06 34.92199 -12.35387 35982 ft 472 kts 31°
2026-04-29 13:07 34.97585 -12.30790 35980 ft 473 kts 31°
2026-04-29 13:07 35.00280 -12.28486 35984 ft 473 kts 31°
2026-04-29 13:08 35.09051 -12.20976 35975 ft 473 kts 31°
2026-04-29 13:08 35.14436 -12.16356 35974 ft 473 kts 31°
2026-04-29 13:09 35.19790 -12.11755 35970 ft 473 kts 31°
2026-04-29 13:09 35.25179 -12.07115 35978 ft 473 kts 31°
2026-04-29 13:10 35.30558 -12.02478 35974 ft 473 kts 31°
2026-04-29 13:10 35.35941 -11.97829 35970 ft 473 kts 31°
2026-04-29 13:11 35.40411 -11.93962 35967 ft 473 kts 31°
2026-04-29 13:11 35.45792 -11.89300 35965 ft 473 kts 31°
2026-04-29 13:12 35.51169 -11.84633 35970 ft 473 kts 31°
2026-04-29 13:12 35.56545 -11.79960 35967 ft 473 kts 31°
2026-04-29 13:13 35.61891 -11.75305 35961 ft 473 kts 31°
2026-04-29 13:13 35.67261 -11.70622 35959 ft 473 kts 31°
2026-04-29 13:14 35.72632 -11.65929 35960 ft 473 kts 31°
2026-04-29 13:14 35.78010 -11.61223 35960 ft 474 kts 31°
2026-04-29 13:15 35.83351 -11.56541 35957 ft 474 kts 31°
2026-04-29 13:15 35.88724 -11.51822 35955 ft 474 kts 31°
2026-04-29 13:16 35.94094 -11.47098 35954 ft 474 kts 31°
2026-04-29 13:16 35.99225 -11.41936 35966 ft 480 kts 40°
2026-04-29 13:17 36.03954 -11.36094 35957 ft 481 kts 41°
2026-04-29 13:17 36.08661 -11.30195 35957 ft 482 kts 41°
2026-04-29 13:18 36.13393 -11.24322 35951 ft 482 kts 40°
2026-04-29 13:18 36.18149 -11.18456 35950 ft 483 kts 40°
2026-04-29 13:19 36.22879 -11.12622 35950 ft 483 kts 40°
2026-04-29 13:19 36.27638 -11.06740 35946 ft 484 kts 40°
2026-04-29 13:20 36.32401 -11.00841 35945 ft 484 kts 40°
2026-04-29 13:20 36.37161 -10.94933 35944 ft 484 kts 40°
2026-04-29 13:21 36.41923 -10.89012 35943 ft 484 kts 40°
2026-04-29 13:21 36.46686 -10.83078 35926 ft 484 kts 40°
2026-04-29 13:22 36.51441 -10.77143 35945 ft 484 kts 40°
2026-04-29 13:22 36.56197 -10.71197 35938 ft 484 kts 40°
2026-04-29 13:23 36.60915 -10.65287 35935 ft 484 kts 40°
2026-04-29 13:23 36.65659 -10.59334 35930 ft 484 kts 40°
2026-04-29 13:24 36.70403 -10.53369 35939 ft 484 kts 40°
2026-04-29 13:24 36.75141 -10.47402 35938 ft 484 kts 41°
2026-04-29 13:25 36.79878 -10.41423 35935 ft 484 kts 41°
2026-04-29 13:25 36.86976 -10.32445 35934 ft 484 kts 41°
2026-04-29 13:26 36.91712 -10.26441 35934 ft 485 kts 41°
2026-04-29 13:26 36.96442 -10.20432 35930 ft 485 kts 41°
2026-04-29 13:27 37.01141 -10.14452 35929 ft 485 kts 41°
2026-04-29 13:27 37.05870 -10.08423 35928 ft 486 kts 41°
2026-04-29 13:28 37.10604 -10.02376 35924 ft 486 kts 41°
2026-04-29 13:28 37.15344 -9.96309 35927 ft 487 kts 41°
2026-04-29 13:29 37.20080 -9.90235 35921 ft 487 kts 41°
2026-04-29 13:29 37.24825 -9.84138 35924 ft 488 kts 41°